Temp
19 19 20 20 20 21 21 22 22 23 23 23 23 24 24 24 24 25 26 27 27 27 26 26 26 27 26 26 25 25 29 29 29 29 29 27 28 26 25 25 23 22 21 20 17
19 19 20 20 21 21 21 22 22 23 23 23 23 24 24 24 24 25 26 26 27 27 27 26 27 27 26 26 26 28 29 29 29 29 30 28 28 27 26 25 21 19 19 21 17
19 19 20 20 21 21 21 22 22 23 23 23 24 24 24 24 24 26 26 26 26 26 27 27 27 27 27 26 26 26 30 28 29 28 28 29 27 26 27 26 24 21 19 18 17
19 20 20 21 21 21 21 22 22 23 23 23 24 24 24 24 26 25 26 26 26 26 27 27 27 26 27 29 26 29 28 28 28 27 27 29 28 27 27 27 25 21 20 19 18
19 20 20 21 21 21 22 22 22 23 23 23 24 24 24 24 25 25 26 26 26 26 26 27 26 26 28 28 28 28 29 28 28 28 28 27 28 28 26 23 23 20 19 19 19
19 20 20 21 21 22 22 22 22 23 23 23 24 24 24 24 25 25 26 26 26 26 26 27 27 27 27 27 28 27 28 28 29 29 27 29 27 28 23 22 21 20 20 19 19
19 20 20 21 22 22 22 23 23 22 23 23 23 24 24 25 25 25 25 26 26 26 27 26 26 26 27 28 26 27 29 31 29 29 29 29 29 27 23 23 22 21 20 20 19
19 20 20 21 22 22 23 23 23 22 22 23 23 23 25 25 25 25 25 25 25 26 27 26 26 27 26 26 27 28 29 30 30 30 28 30 30 25 23 23 22 22 21 20 20
19 20 20 21 22 22 23 23 23 23 22 22 23 23 24 25 25 25 25 26 26 26 26 26 26 26 26 28 29 28 30 29 30 29 29 31 30 25 24 24 23 22 22 21 21
18 19 20 21 22 22 23 22 22 22 22 22 23 23 25 26 26 26 25 26 26 26 26 26 25 28 26 29 29 29 29 28 29 30 29 30 30 26 24 25 23 23 22 22 22
18 19 20 20 22 22 23 22 22 22 22 24 24 24 25 25 26 26 26 26 26 26 28 25 28 28 29 28 27 27 27 27 28 29 30 31 29 27 25 25 25 23 23 22 22
17 19 20 20 22 23 22 22 22 22 22 24 24 25 25 25 26 26 26 26 26 27 26 27 28 28 27 26 26 26 27 28 28 27 29 27 26 25 25 26 26 25 24 24 23
17 18 19 20 22 22 22 22 22 22 21 23 24 25 26 26 26 26 26 26 27 26 26 27 28 26 27 27 27 28 29 28 29 27 26 27 26 25 25 24 25 24 24 24 23
17 18 19 20 21 21 22 22 23 23 23 25 24 26 26 27 27 27 27 27 27 28 26 27 27 27 27 28 29 30 28 29 29 29 29 26 29 25 26 26 25 25 24 24 23
16 17 18 19 20 21 22 22 23 22 24 25 24 25 26 28 27 27 27 27 28 27 27 29 28 27 28 30 29 29 27 28 27 28 28 27 29 29 25 26 26 25 24 24 24
17 17 18 19 20 21 22 22 22 23 23 26 25 26 27 27 27 25 26 27 26 27 26 28 26 29 30 27 28 26 28 26 25 27 28 26 27 29 26 27 29 26 24 24 24
17 18 18 19 20 21 22 22 23 22 25 26 26 26 28 27 27 27 27 27 28 27 27 28 29 28 28 29 27 28 29 28 28 28 27 24 26 28 27 26 27 26 24 23 22
17 18 20 20 21 21 21 23 21 24 24 26 26 26 27 27 28 27 26 27 26 27 27 28 28 29 29 30 30 28 29 29 26 27 27 23 26 29 25 24 24 24 25 23 22
17 19 20 20 21 21 20 22 23 23 24 26 25 26 26 27 28 27 27 28 28 27 28 27 28 27 28 27 29 26 28 26 25 21 26 26 26 27 25 24 23 24 23 23 22
17 18 18 19 19 19 21 21 22 21 23 25 26 26 26 27 27 27 26 27 28 27 28 27 28 27 25 27 25 28 25 27 26 25 25 26 25 27 28 25 24 24 23 23 22
16 17 17 19 18 18 21 21 21 21 22 24 25 25 26 26 28 27 27 27 27 26 27 27 27 27 27 28 28 26 27 24 26 25 27 26 27 27 26 25 24 24 23 22 22
14 17 16 16 18 14 20 19 20 23 22 24 24 25 25 25 26 27 28 27 25 26 27 27 28 28 28 25 25 26 28 28 28 24 23 25 27 25 23 24 23 24 23 22 23
11 13 15 15 19 18 17 20 21 23 23 24 24 24 25 25 25 26 26 24 24 26 26 25 27 27 26 26 25 27 24 24 23 24 23 26 28 24 23 22 22 23 22 20 20
9 15 15 15 14 17 19 21 22 21 22 22 24 24 25 25 23 25 26 24 23 24 22 25 24 28 28 29 28 25 24 24 27 26 26 26 27 26 25 23 22 20 20 19 19
9 11 9 16 15 15 15 18 21 22 20 20 22 23 25 24 24 25 24 25 24 21 21 25 26 24 23 25 26 27 26 24 25 26 26 27 25 26 25 24 23 21 20 19 18
7 8 8 11 9 13 14 17 19 19 19 22 21 23 23 24 26 25 25 24 26 23 23 21 23 23 24 23 25 25 25 25 25 23 23 24 24 24 23 20 20 20 19 19 18
7 7 6 10 12 14 15 16 17 16 19 19 19 21 22 21 21 20 21 21 23 24 22 23 22 24 24 22 24 24 25 25 25 24 26 24 26 24 24 22 22 21 20 19 19
Height
1528 1525 1522 1520 1517 1514 1511 1509 1506 1504 1503 1502 1503 1503 1504 1504 1504 1504 1505 1508 1510 1512 1514 1515 1517 1517 1517 1517 1516 1516 1518 1523 1521 1519 1517 1518 1519 1526 1527 1529 1531 1532 1534 1537 1541
1528 1524 1521 1519 1516 1513 1510 1507 1504 1502 1501 1500 1500 1501 1502 1502 1502 1501 1504 1504 1507 1511 1513 1515 1516 1517 1517 1517 1517 1516 1517 1519 1518 1514 1514 1516 1520 1524 1527 1528 1532 1532 1536 1539 1543
1526 1523 1520 1517 1514 1511 1508 1505 1502 1500 1499 1498 1498 1499 1500 1501 1501 1500 1500 1502 1505 1509 1512 1514 1515 1516 1516 1516 1518 1517 1517 1517 1515 1515 1515 1516 1521 1524 1524 1528 1528 1532 1536 1541 1546
1525 1522 1519 1516 1513 1510 1507 1504 1500 1498 1497 1496 1496 1497 1498 1499 1501 1498 1499 1501 1504 1507 1511 1513 1515 1516 1516 1516 1518 1518 1516 1516 1515 1514 1514 1516 1519 1523 1526 1528 1528 1532 1535 1540 1546
1524 1521 1518 1514 1512 1508 1505 1502 1500 1498 1496 1495 1495 1495 1497 1498 1498 1497 1498 1500 1503 1507 1510 1512 1514 1515 1515 1516 1517 1517 1516 1515 1514 1512 1513 1516 1520 1523 1529 1529 1529 1534 1541 1545 1549
1522 1519 1516 1513 1510 1507 1504 1501 1499 1497 1496 1494 1494 1494 1496 1498 1497 1497 1498 1500 1503 1507 1510 1512 1514 1515 1516 1517 1518 1518 1517 1514 1514 1513 1514 1517 1522 1524 1533 1533 1534 1537 1541 1545 1548
1520 1517 1514 1511 1508 1505 1502 1499 1497 1496 1495 1494 1493 1494 1496 1497 1496 1497 1499 1501 1504 1507 1509 1512 1514 1515 1515 1516 1517 1518 1517 1512 1515 1515 1517 1520 1523 1526 1531 1534 1536 1540 1543 1546 1549
1518 1515 1512 1509 1506 1503 1500 1498 1495 1494 1494 1494 1494 1495 1494 1495 1496 1497 1499 1501 1504 1507 1510 1512 1513 1514 1516 1516 1518 1517 1517 1520 1515 1515 1518 1518 1526 1528 1531 1533 1538 1541 1544 1546 1549
1515 1513 1510 1507 1503 1501 1498 1496 1494 1494 1494 1493 1494 1494 1494 1494 1496 1497 1499 1501 1503 1507 1510 1512 1513 1514 1516 1516 1519 1519 1522 1523 1519 1516 1516 1517 1524 1527 1531 1533 1537 1540 1543 1546 1549
1512 1510 1507 1504 1501 1499 1497 1495 1494 1493 1493 1493 1493 1496 1493 1493 1494 1496 1499 1501 1504 1507 1511 1512 1513 1513 1517 1516 1525 1523 1523 1524 1523 1517 1518 1519 1521 1526 1530 1533 1536 1540 1543 1545 1547
1509 1506 1504 1502 1499 1497 1496 1495 1497 1495 1492 1489 1490 1489 1489 1492 1494 1497 1499 1501 1504 1507 1508 1512 1512 1514 1510 1513 1515 1519 1524 1525 1519 1516 1517 1517 1520 1523 1529 1532 1535 1538 1540 1543 1545
1506 1503 1501 1499 1496 1495 1495 1494 1494 1496 1490 1485 1486 1487 1489 1490 1493 1496 1499 1502 1502 1505 1508 1511 1510 1506 1510 1513 1516 1519 1522 1520 1518 1517 1516 1523 1527 1527 1528 1529 1532 1535 1538 1541 1546
1504 1500 1498 1496 1494 1493 1493 1494 1493 1492 1491 1483 1482 1483 1487 1490 1490 1492 1497 1498 1501 1505 1507 1509 1507 1506 1508 1511 1515 1515 1515 1517 1516 1519 1521 1523 1531 1529 1528 1530 1531 1533 1536 1539 1543
1501 1497 1495 1493 1494 1491 1492 1493 1492 1492 1492 1481 1479 1479 1483 1486 1489 1490 1494 1498 1500 1502 1506 1507 1504 1505 1508 1509 1507 1513 1510 1511 1514 1518 1527 1524 1534 1530 1524 1524 1527 1529 1532 1535 1539
1498 1495 1492 1492 1490 1490 1492 1492 1491 1492 1508 1475 1476 1476 1477 1483 1483 1487 1491 1495 1497 1500 1504 1502 1501 1505 1506 1501 1503 1509 1510 1513 1518 1521 1524 1529 1530 1517 1526 1524 1517 1525 1528 1532 1535
1493 1491 1488 1488 1487 1488 1488 1490 1492 1498 1504 1473 1471 1473 1477 1479 1482 1485 1490 1495 1496 1498 1500 1498 1499 1497 1495 1500 1503 1508 1510 1516 1520 1521 1532 1532 1530 1520 1523 1511 1506 1518 1524 1529 1532
1489 1487 1484 1483 1484 1484 1486 1489 1497 1501 1471 1471 1469 1470 1470 1476 1481 1482 1487 1491 1494 1506 1505 1499 1496 1495 1495 1501 1506 1506 1510 1529 1536 1534 1537 1535 1534 1518 1511 1511 1509 1514 1519 1524 1529
1483 1480 1478 1478 1479 1481 1484 1488 1502 1477 1473 1463 1465 1468 1472 1473 1476 1481 1485 1491 1492 1492 1501 1503 1510 1494 1493 1493 1499 1506 1506 1521 1548 1542 1533 1538 1532 1510 1509 1509 1508 1510 1516 1523 1527
1477 1474 1472 1471 1473 1477 1482 1486 1478 1473 1466 1464 1465 1469 1471 1470 1472 1478 1481 1483 1482 1487 1495 1503 1502 1491 1493 1494 1496 1510 1512 1512 1528 1546 1538 1530 1521 1507 1507 1506 1504 1507 1513 1518 1524
1472 1469 1467 1467 1469 1474 1477 1476 1470 1466 1465 1464 1465 1461 1468 1468 1472 1475 1481 1474 1478 1481 1482 1492 1502 1492 1497 1494 1500 1498 1508 1517 1520 1544 1547 1528 1531 1517 1504 1505 1507 1508 1510 1514 1520
1470 1466 1465 1463 1467 1473 1470 1468 1466 1462 1464 1463 1462 1462 1461 1464 1463 1470 1471 1470 1470 1478 1482 1487 1494 1499 1496 1495 1495 1506 1506 1516 1514 1523 1528 1534 1521 1502 1503 1503 1505 1506 1509 1513 1517
1469 1467 1465 1464 1468 1471 1467 1465 1462 1459 1460 1460 1460 1457 1459 1459 1463 1463 1464 1465 1467 1470 1479 1481 1484 1496 1494 1495 1496 1495 1496 1497 1508 1530 1530 1527 1516 1500 1503 1502 1502 1502 1505 1509 1514
1470 1466 1464 1464 1462 1464 1464 1461 1460 1458 1457 1457 1456 1455 1455 1456 1464 1459 1462 1465 1467 1468 1472 1478 1487 1498 1501 1498 1497 1495 1499 1502 1507 1511 1524 1522 1509 1500 1500 1500 1501 1501 1503 1506 1509
1472 1466 1463 1463 1463 1462 1460 1458 1457 1456 1456 1456 1454 1454 1454 1456 1458 1460 1461 1464 1466 1467 1468 1472 1482 1479 1488 1481 1480 1497 1497 1499 1493 1505 1506 1507 1500 1497 1497 1500 1501 1501 1502 1505 1507
1473 1470 1470 1462 1463 1463 1463 1460 1456 1455 1456 1455 1453 1452 1452 1458 1458 1457 1459 1461 1464 1467 1470 1471 1477 1483 1485 1481 1480 1480 1486 1495 1495 1496 1501 1495 1503 1495 1496 1496 1496 1497 1500 1502 1505
1474 1474 1470 1468 1466 1465 1462 1459 1457 1456 1456 1453 1454 1449 1451 1453 1448 1454 1454 1458 1456 1466 1467 1473 1482 1482 1486 1485 1482 1485 1486 1487 1492 1498 1500 1500 1499 1494 1494 1495 1495 1493 1494 1496 1500
1474 1473 1474 1468 1464 1463 1460 1460 1458 1459 1454 1455 1454 1452 1452 1454 1454 1454 1455 1455 1456 1459 1466 1471 1478 1481 1487 1490 1488 1494 1484 1484 1487 1488 1487 1499 1489 1490 1491 1492 1490 1490 1490 1490 1494
Wind_Speed
16 16 17 18 18 19 16 12 12 11 9 9 9 10 9 9 11 13 15 12 12 7 5 5 5 4 3 2 3 2 2 4 4 2 1 5 4 5 4 9 4 3 11 20 30
17 17 17 18 19 19 18 15 13 10 8 8 8 8 8 7 9 14 9 11 13 14 9 6 6 4 2 2 2 2 3 7 2 3 3 10 7 11 6 8 7 16 18 29 30
17 17 17 18 19 20 19 18 14 11 7 7 7 6 6 5 6 2 3 13 13 15 11 5 6 4 3 2 1 1 4 4 2 7 6 9 9 6 11 5 7 21 29 28 27
18 18 18 18 19 20 20 18 16 8 5 6 5 5 5 3 2 1 3 13 14 14 12 9 5 2 2 2 3 2 2 3 6 3 6 10 11 6 9 3 7 24 29 30 28
19 19 18 19 19 19 19 17 14 6 5 5 4 4 5 3 1 2 5 14 17 15 12 10 7 3 2 2 3 1 4 6 7 1 6 12 7 3 4 8 17 24 24 24 24
19 19 19 19 19 18 18 16 12 8 6 4 3 6 5 2 0 1 6 15 16 15 12 10 4 3 4 2 2 0 7 9 3 4 8 9 7 5 6 16 20 23 23 22 22
19 20 20 19 19 18 17 15 12 8 5 3 3 7 6 1 1 5 9 11 13 13 13 11 6 3 1 1 3 3 3 3 3 9 5 9 6 5 15 17 22 19 18 20 20
20 20 20 19 18 17 16 13 11 4 2 1 3 5 3 3 3 7 10 12 12 12 11 8 1 1 1 1 3 1 1 4 3 10 4 8 5 8 16 19 18 18 16 18 19
20 19 19 19 18 16 15 11 5 2 2 2 3 3 2 5 5 8 9 10 13 15 11 8 0 2 2 2 2 2 3 2 4 2 5 6 3 10 15 16 18 18 18 17 16
21 19 18 18 17 14 12 8 4 4 4 3 3 2 4 5 9 12 12 16 9 13 6 3 2 2 2 4 5 3 1 2 4 5 5 10 6 10 15 16 15 16 16 16 18
21 20 18 17 15 12 8 4 4 4 7 6 2 2 4 7 11 13 14 12 11 7 5 2 5 8 8 5 2 3 2 5 3 3 7 9 9 10 13 13 14 16 16 16 17
22 20 17 16 14 10 3 0 3 5 7 9 14 15 8 7 8 13 13 7 4 6 4 3 7 5 3 4 4 2 4 4 3 3 5 8 5 4 11 12 15 15 16 16 13
22 21 18 14 12 5 5 5 4 6 3 5 10 13 14 11 6 15 16 7 4 6 7 4 3 8 5 4 5 4 3 5 4 5 7 11 3 5 6 9 11 12 12 13 14
22 21 19 14 6 4 3 4 5 2 3 4 6 8 16 10 5 17 19 9 3 9 6 5 3 5 5 6 7 4 5 4 8 5 3 2 6 6 11 12 14 16 15 14 13
21 21 18 15 11 6 6 3 2 0 3 5 5 7 16 13 11 12 22 11 7 7 5 3 5 6 7 4 10 3 4 4 4 4 4 5 4 3 7 14 19 19 20 16 14
21 20 20 15 11 7 8 4 5 2 6 4 6 8 11 8 4 9 14 9 4 5 2 3 2 3 2 5 2 13 5 5 3 1 4 2 7 5 7 19 19 21 21 18 17
22 19 20 15 8 5 9 8 3 5 2 7 5 9 17 9 6 8 14 14 8 7 8 2 3 1 4 8 5 3 5 2 2 3 1 3 3 7 3 6 15 19 24 21 20
23 20 16 13 12 14 7 4 6 3 5 2 4 9 14 10 10 5 13 14 5 3 4 7 7 8 5 4 5 5 4 3 3 2 2 1 4 1 3 13 13 20 28 22 20
24 18 11 11 13 16 11 8 7 6 2 1 4 7 10 7 6 7 11 16 13 10 5 6 5 2 0 4 3 5 5 3 6 2 3 0 3 10 4 6 5 18 26 26 24
24 18 7 9 12 18 6 7 5 4 2 2 7 5 13 15 9 13 11 7 10 14 7 4 5 1 5 5 11 2 10 5 1 3 3 2 4 5 6 3 6 15 25 28 26
18 7 8 7 18 10 9 7 6 7 6 4 3 5 5 8 13 10 12 4 9 11 12 7 2 4 5 5 9 5 4 5 4 1 3 4 3 5 6 5 11 16 23 28 28
7 2 1 16 6 2 6 5 5 4 4 3 3 5 6 10 8 10 12 2 7 16 12 9 6 7 4 1 2 1 4 7 7 6 1 3 6 3 5 10 16 19 24 28 30
15 5 1 8 4 4 2 4 4 4 4 3 3 5 3 7 4 6 7 3 10 12 12 10 5 6 4 3 3 6 4 4 5 3 8 6 6 2 3 5 13 17 21 25 27
6 2 1 7 1 2 4 4 5 3 4 4 3 2 3 3 0 7 9 2 6 5 5 11 5 9 15 16 5 6 8 9 8 6 7 8 9 4 3 4 8 14 17 20 22
3 1 1 1 2 2 2 1 5 5 2 2 3 7 5 4 3 3 2 6 4 7 4 5 6 4 0 2 6 9 15 14 11 6 8 4 7 3 2 5 12 15 15 18 21
4 3 4 3 4 3 1 3 3 1 2 2 3 4 7 5 5 8 7 4 4 4 4 1 4 3 4 2 3 8 11 12 7 5 3 5 8 6 8 6 7 16 20 24 26
4 4 3 2 1 2 1 1 3 2 4 2 4 1 6 3 3 4 4 8 4 5 4 3 7 5 5 1 3 4 12 13 7 7 7 9 8 3 6 10 15 18 22 27 26
Wind_Direction
357 356 354 352 352 353 353 337 324 314 293 278 266 262 265 266 266 261 252 244 222 206 191 167 145 143 118 83 72 63 88 76 36 33 16 159 119 118 113 138 89 49 136 154 154
352 352 351 348 347 348 349 341 326 314 291 279 267 255 254 262 268 264 244 224 209 199 187 169 137 122 100 65 47 29 34 26 269 277 320 174 145 149 150 157 81 88 123 150 154
346 347 347 345 343 343 345 342 333 314 287 281 269 253 242 261 287 179 204 210 197 190 189 170 139 94 89 78 73 79 33 5 294 277 232 176 143 153 157 197 183 152 146 152 158
341 343 343 341 340 340 342 343 340 322 292 286 268 244 224 227 137 194 211 187 184 182 190 164 159 106 98 90 60 328 302 283 308 325 157 179 153 151 162 346 159 157 157 159 164
338 338 339 338 338 338 339 341 342 334 317 300 258 217 197 218 292 2 183 176 177 173 173 166 159 130 89 59 12 151 321 307 315 314 159 148 152 128 86 105 140 145 154 162 169
335 334 335 335 334 335 335 335 334 324 321 314 230 194 179 192 8 84 141 168 180 175 172 168 142 113 104 144 239 248 302 321 26 115 135 156 132 130 101 136 135 148 159 169 177
332 332 332 331 330 333 333 331 324 311 317 339 186 183 200 152 158 157 153 164 172 178 177 151 114 62 47 85 358 343 321 14 136 162 151 159 157 76 145 147 143 156 166 174 183
330 329 330 328 327 331 330 329 324 289 294 331 167 178 206 207 185 174 170 172 171 168 162 163 135 125 120 61 35 341 104 166 148 169 153 213 185 107 153 151 154 163 171 181 193
327 327 328 326 324 329 328 329 325 304 250 252 202 187 210 199 186 175 173 171 160 155 138 151 101 107 103 150 183 33 146 171 197 205 148 202 177 145 165 166 161 172 184 190 196
326 325 325 325 321 325 323 322 303 283 248 257 227 230 210 164 159 152 149 143 137 151 145 179 119 148 116 204 213 162 216 179 222 159 188 189 173 157 173 182 172 177 188 196 204
325 323 324 324 317 318 313 314 308 296 235 223 245 248 139 140 155 162 145 133 130 152 168 144 208 213 212 205 111 113 208 245 233 178 175 206 181 177 175 192 184 187 194 204 215
324 322 322 323 315 307 258 262 22 313 299 259 237 237 203 137 159 176 172 163 151 160 136 163 236 200 205 173 214 231 218 186 116 56 191 173 161 197 198 205 209 204 206 214 220
324 322 321 324 313 270 222 203 334 333 268 270 223 224 203 207 198 188 176 160 143 158 185 194 124 131 181 168 171 178 192 175 136 105 77 145 184 214 207 221 219 227 221 220 226
324 322 322 327 309 256 240 197 323 288 301 221 208 212 187 174 201 192 189 164 156 198 169 248 186 214 183 223 192 174 177 139 132 188 187 267 215 218 217 227 223 222 225 223 232
322 320 317 315 295 283 187 220 282 158 277 144 162 180 173 175 145 180 189 191 185 168 180 165 177 176 190 204 184 111 98 103 102 117 167 197 236 161 211 235 235 214 220 219 225
318 318 308 305 286 247 206 204 156 227 246 173 143 158 159 183 146 136 176 189 158 152 227 260 258 234 166 103 109 147 103 70 87 113 239 125 241 212 199 227 235 208 206 205 210
315 311 299 286 271 183 181 169 191 225 348 171 167 171 179 172 149 164 178 188 185 174 212 197 210 206 148 114 110 155 159 166 199 202 316 116 245 258 224 287 250 215 199 197 201
316 310 292 272 244 206 190 165 216 239 240 36 138 156 187 160 192 153 162 189 216 144 155 200 184 180 172 198 178 184 232 213 224 240 317 104 241 203 275 293 257 207 201 196 193
320 314 289 252 214 196 176 200 211 212 279 243 132 158 186 190 184 171 186 202 202 187 194 173 222 137 103 132 185 156 187 71 109 105 263 80 259 271 289 335 216 188 187 189 191
327 318 266 229 190 179 185 223 228 218 291 239 219 198 181 188 178 192 180 183 200 199 208 162 200 93 129 107 55 216 138 156 91 184 265 248 287 286 316 320 176 185 193 188 188
330 322 320 206 173 177 200 217 225 240 226 221 242 195 204 175 186 181 192 185 205 175 202 162 253 137 164 212 171 142 177 68 112 282 255 292 282 211 241 254 205 204 199 193 191
346 287 343 140 161 217 209 200 212 216 198 235 248 243 207 176 168 186 194 207 170 152 180 182 205 218 186 59 265 119 176 171 216 202 216 299 272 130 270 264 212 206 202 198 196
332 284 131 196 204 199 244 233 234 209 214 190 243 225 192 186 165 172 191 110 164 168 168 173 209 202 183 169 159 215 166 134 113 130 193 225 253 351 322 254 228 215 206 200 193
330 302 322 189 102 253 194 214 208 209 240 235 259 219 174 176 286 166 152 129 149 150 146 153 152 212 228 227 179 180 183 179 206 208 203 227 271 270 332 264 234 237 221 206 201
331 13 9 324 126 328 258 328 194 205 206 247 216 222 186 170 143 156 141 134 104 148 96 185 193 182 76 208 192 198 181 175 198 187 222 232 219 236 270 252 242 227 213 208 204
350 347 335 279 299 260 244 191 209 219 244 173 251 199 196 180 204 185 162 199 162 136 121 113 154 149 142 150 169 172 175 177 189 178 199 177 248 250 262 266 241 225 213 209 206
343 326 318 305 324 232 163 192 172 300 203 340 294 203 170 101 15 53 87 101 109 156 132 137 145 171 180 45 134 224 201 192 188 190 196 202 233 207 264 256 258 245 224 218 203